Regional Weather Roundup
Issued by NWS

Home | Current Version | Previous Version | Text Only | Print | Product List | Glossary Off
Versions: 1 2 3 4 5 6 7 8 9 10 11 12 13 14 15 16 17 18 19 20 21 22 23 24 25 26 27 28 29 30 31 32 33 34 35 36 37 38 39 40 41 42 43 44 45 46 47 48 49 50

000
ASUS43 KMPX 272210
RWRMN
WEATHER ROUNDUP FOR MINNESOTA
NATIONAL WEATHER SERVICE TWIN CITIES/CHANHASSEN MN
500 PM CDT FRI MAY 27 2016


NOTE: "FAIR" INDICATES FEW OR NO CLOUDS BELOW 12,000 FEET WITH NO
SIGNIFICANT WEATHER AND/OR OBSTRUCTIONS TO VISIBILITY. N/A MEANS
CURRENT SKY AND/OR WEATHER CONDITIONS ARE NOT AVAILABLE.

MNZ060>063-068>070-272300-
   Twin Cities Metro

CITY           SKY/WX    TMP DP  RH WIND       PRES   REMARKS
TWIN CITIES    LGT RAIN  65  61  87 N7        29.77S FOG
ST PAUL        CLOUDY    65  62  90 NW7       29.77S
CRYSTAL        CLOUDY    65  59  81 NW7       29.77S
BLAINE         CLOUDY    64  64 100 NW5       29.78S
EDEN PRAIRIE   CLOUDY    66  60  81 N6        29.77S
SOUTH ST PAUL  CLOUDY    65  62  90 NW6       29.77R
LAKE ELMO      CLOUDY    64  63  94 NW5       29.78R
$$
MNZ001>005-007-008-013>017-022>024-027-028-272300-
   Northwest Minnesota

CITY           SKY/WX    TMP DP  RH WIND       PRES   REMARKS
BEMIDJI        CLOUDY    63  54  72 SE16G24   29.83S
HALLOCK        MOSUNNY   73  50  43 NW3       29.77F
ROSEAU         TSTM      61  55  82 E7        29.82R
WARROAD        RAIN      63  57  82 E13G20    29.83S
THIEF RVR FALL CLOUDY    66  57  72 SE14      29.80R
CROOKSTON      LGT RAIN  72  59  64 N12       29.76S
FOSSTON        MOSUNNY   66  57  72 E10G16    29.79S
DETROIT LAKES  CLOUDY    70  59  68 SE13      29.79R
MOORHEAD       LGT RAIN  64  63  94 NW9       29.77R
PARK RAPIDS    CLOUDY    65  55  70 SE18      29.81R
MAHNOMEN       MOCLDY    70  57  63 SE9G17    29.77R
$$
MNZ006-009>011-018-025>026-272300-
   North Central Minnesota

CITY           SKY/WX    TMP DP  RH WIND       PRES   REMARKS
BAUDETTE       PTSUNNY   69  54  58 S18G24    29.83S
FLAG ISLAND    LGT RAIN  63  61  94 CALM      29.83S
INTL FALLS     CLOUDY    66  54  65 VRB3      29.86R
WASKISH        CLOUDY    66  57  72 SE10G17   29.83F
BIG FORK       RAIN      61  57  88 E8        29.86F
LONGVILLE      DRIZZLE   61  59  94 E5        29.84F
GRAND RAPIDS   LGT RAIN  60  59  96 VRB3      29.88F
CRANE LAKE     LGT RAIN  59  55  88 S5        29.91S
ORR            LGT RAIN  59  55  88 CALM      29.86F
COOK           LGT RAIN  61  57  88 CALM      29.89F
WALKER         MOCLDY    62  57  83 SE8       29.82F
$$
MNZ012-019>021-037-272300-
   Northeast Minnesota

CITY           SKY/WX    TMP DP  RH WIND       PRES   REMARKS
DULUTH         LGT RAIN  52  50  93 E5        29.87R
ELY            LGT RAIN  61  57  88 NE3       29.90S
HIBBING        LGT RAIN  60  57  89 NE5       29.88S
EVELETH        LGT RAIN  61  55  82 E3        29.89F
DULUTH HARBOR  DRIZZLE   45  45 100 NE10      29.88F
TWO HARBORS    DRIZZLE   52  46  82 CALM      29.87F
SILVER BAY     LGT RAIN  54  50  87 SE6       29.88R
GRAND MARAIS     N/A     45  42  89 NE6       29.91F
G MARAIS ARPRT LGT RAIN  57  50  77 N8        29.92F
$$
MNZ029>031-032-039>041-046>048-054>057-064-272300-
   West Central Minnesota

CITY           SKY/WX    TMP DP  RH WIND       PRES   REMARKS
FERGUS FALLS   CLOUDY    70  57  64 SE7       29.73S
WHEATON        CLOUDY    72  59  64 S3        29.76F
MORRIS         CLOUDY    68  63  83 E6        29.74F
ALEXANDRIA     LGT RAIN  63  60  90 E12       29.79S FOG
ELBOW LAKE     FAIR      67  60  78 E10G17    29.76S
WADENA         CLOUDY    64  59  82 SE14G20   29.80R
GLENWOOD       TSTM      64  61  88 E12G22    29.78S
APPLETON       CLOUDY    72  57  60 CALM      29.74F
BENSON         CLOUDY    70  61  73 E8        29.75F
ORTONVILLE     MOSUNNY   66  59  77 W3        29.75F
MADISON        DRIZZLE   72  61  68 NW8       29.75F
WILLMAR        LGT RAIN  66  63  88 S5        29.79R
$$
MNZ033>034-036-042>043-049>051-058-059-272300-
   Central Minnesota

CITY           SKY/WX    TMP DP  RH WIND       PRES   REMARKS
ST CLOUD       LGT RAIN  61  60  97 NE7       29.80S VSB 1
SAUK CENTRE    CLOUDY    62  59  91 E12G18    29.79F
PAYNESVILLE    CLOUDY    65  62  91 E9        29.79S
AITKIN         CLOUDY    64  59  82 N6        29.82F
PINE RIVER     DRIZZLE   61  61 100 E9        29.87F
BRAINERD       CLOUDY    62  58  86 E3        29.83S
STAPLES        RAIN      59  57  94 E8        29.82R
LONG PRAIRIE   LGT RAIN  61  59  94 NE13      29.81S
LITTLE FALLS   CLOUDY    61  55  82 E5        29.82S
LITCHFIELD     CLOUDY    64  64 100 E5        29.79S
BUFFALO        CLOUDY    62  58  87 NE6       29.80S
MAPLE LAKE     DRIZZLE   63  61  94 E6        29.80F
HUTCHINSON     PTSUNNY   69  64  86 E8        29.78F
$$
MNZ037-044-045-052-053-272300-
   East Central Minnesota

CITY           SKY/WX    TMP DP  RH WIND       PRES   REMARKS
PRINCETON      DRIZZLE   63  61  94 NW6       29.80F
MORA           DRIZZLE   57  54  88 NE5       29.82S
CAMBRIDGE      RAIN      64  55  72 NW5       29.77S
RUSH CITY      CLOUDY    64  61  91 NE8G16    29.78S
MOOSE LAKE     DRIZZLE   54  52  94 NE5       29.82F
HINCKLEY       LGT RAIN  59  57  94 NE12      29.80F
CLOQUET        LGT RAIN  52  50  93 E3        29.85F
MCGREGOR       CLOUDY    63  61  94 NE7       29.84F
$$
MNZ071>073-080-081-089-090-097-098-272300-
   Southwest Minnesota

CITY           SKY/WX    TMP DP  RH WIND       PRES   REMARKS
MONTEVIDEO     MOSUNNY   77  63  61 CALM      29.76F
GRANITE FALLS  CLOUDY    72  60  67 NE5       29.76F
CANBY          CLOUDY    76  63  62 W9        29.75F
MARSHALL       CLOUDY    73  56  54 W5        29.74F
REDWOOD FALLS  CLOUDY    67  62  84 CALM      29.75F
OLIVIA         CLOUDY    68  61  77 CALM      29.75F
PIPESTONE      SUNNY     72  55  56 N6        29.75F
WINDOM         MOSUNNY   73  55  53 CALM      29.74F
WORTHINGTON    MOSUNNY   72  58  61 CALM      29.74F
JACKSON        MOSUNNY   75  54  46 NW8       29.74F
TRACY          LGT RAIN  71  58  64 NE3       29.76S
SLAYTON        MOSUNNY   73  54  51 NW7       29.75F
$$
MNZ065>067-074>077-082>085-091>093-272300-
   South Central Minnesota

CITY           SKY/WX    TMP DP  RH WIND       PRES   REMARKS
MANKATO        CLOUDY    68  61  77 E7        29.76F
NEW ULM        RAIN      64  64 100 CALM      29.76F
ST JAMES       CLOUDY    66  55  68 CALM      29.75F
FAIRMONT       PTSUNNY   73  59  60 W5        29.73F
GLENCOE        CLOUDY    65  65  97 NE3       29.77F
OWATONNA       PTSUNNY   68  61  77 CALM      29.77S
WASECA         PTSUNNY   68  59  73 CALM      29.78F
ALBERT LEA     PTSUNNY   70  63  78 CALM      29.75F
$$
MNZ078>079-086>088-094>096-272300-
   Southeast Minnesota

CITY           SKY/WX    TMP DP  RH WIND       PRES   REMARKS
ROCHESTER      CLOUDY    69  66  90 SW7       29.76S
RED WING       CLOUDY    70  64  83 CALM      29.73S
STANTON        CLOUDY    66  62  86 NW6       29.76S
DODGE CENTER   CLOUDY    68  64  88 NW3       29.77S
WINONA         PTSUNNY   73  66  78 CALM      29.73S
AUSTIN         CLOUDY    70  63  78 W6        29.76F
PRESTON        CLOUDY    69  64  86 S7        29.76S
$$
ABBREVIATIONS USED IN REMARKS
   TC - TEMPERATURES IN CELSIUS
  WCI - WIND CHILL INDEX
   HX - HEAT INDEX
  VSB - VISIBILITY
$$



USA.gov is the U.S. government's official web portal to all federal, state and local government web resources and services.